Location: Alexo
(52.4665°N, 115.7844°W)
Time: 11:24:36
(UTC+00:00)

X-37B - Visible Passes

Search period start: 05 December 2021 00:00
Search period end: 15 December 2021 00:00
Orbit: 330 x 341 km, 45.0° (Epoch: 20 November)

Date Brightness Start Highest point End Pass type
(mag) Time Alt. Az. Time Alt. Az. Time Alt. Az.
10 Dec 2.8 01:31:50 10° SSW 01:33:18 13° SSE 01:33:25 13° SSE visible
11 Dec 2.7 01:51:25 10° SW 01:52:57 17° S 01:52:57 17° S visible
12 Dec 3.0 00:37:16 10° SSW 00:38:44 13° SSE 00:40:13 10° SE visible
12 Dec 3.1 02:11:27 10° SW 02:12:29 15° SSW 02:12:29 15° SSW visible
13 Dec 2.7 00:56:51 10° SW 00:58:51 17° S 01:00:49 10° SE visible
13 Dec 3.7 02:31:46 10° SW 02:32:02 11° SW 02:32:02 11° SW visible
14 Dec 2.6 01:16:53 10° SW 01:19:01 19° S 01:20:24 14° SE visible
